Regional Weather Roundup
Issued by NWS Cleveland, OH

Home | Current Version | Previous Version | Graphics & Text | Print | Product List | Glossary On
Versions: 1 2 3 4 5 6 7 8 9 10 11 12 13 14 15 16 17 18 19 20 21 22 23 24 25 26 27 28 29 30 31 32 33 34 35 36 37 38 39 40 41 42 43 44 45 46 47 48 49 50
000
ASUS41 KCLE 211410
RWRCLE
OHIO REGIONAL WEATHER ROUNDUP
NATIONAL WEATHER SERVICE CLEVELAND, OH
1000 AM EDT SUN SEP 21 2014

NOTE: "FAIR" INDICATES FEW OR NO CLOUDS BELOW 12,000 FEET WITH NO
SIGNIFICANT WEATHER AND/OR OBSTRUCTIONS TO VISIBILITY.

OHZ001>008-015>018-024>027-034-035-043-044-211500-
   NORTHWEST OHIO

CITY           SKY/WX    TMP DP  RH WIND       PRES   REMARKS
DEFIANCE       MOSUNNY  N/A N/A N/A W13G25    29.76R
FINDLAY        MOSUNNY   69  59  70 W18G26    29.75R
TOLEDO EXPRESS PTSUNNY   66  58  75 W18G26    29.72R
TOLEDO EXEC    PTSUNNY   67  57  70 W23G31    29.72R
LIMA           MOSUNNY   69  61  75 W21G41    29.79R
$$

OHZ009>014-019>023-028>033-038-089-211500-
   NORTHEAST OHIO

CITY           SKY/WX    TMP DP  RH WIND       PRES   REMARKS
CLE-HOPKINS    PTSUNNY   72  64  76 SW17G29   29.71S
CLE-LAKEFRONT  PTSUNNY   72  64  76 SW14      29.68R
CUY CO. ARPT   CLOUDY    75  68  78 W17G25    29.70R
LORAIN-ELYRIA  PTSUNNY   73  63  70 W18G30    29.71S
ASHTABULA      CLOUDY    70  64  81 SW9       29.70R
AKRON-CANTON   CLOUDY    72  64  76 SW15G23   29.74S
WOOSTER        PTSUNNY   74  65  73 SW14G23   29.74S
MANSFIELD      PTSUNNY   71  63  75 W13G25    29.76R
YOUNGSTOWN     PTSUNNY   70  66  87 SW13      29.73S
$$

OHZ042-051>053-060>062-070>072-077>081-211500-
  SOUTHWEST OHIO

CITY           SKY/WX    TMP DP  RH WIND       PRES   REMARKS
CINC-COVINGTON PTSUNNY   73  66  78 W13       29.84F
CINC-LUNKEN    PTSUNNY   74  66  76 W15G21    29.83F
HAMILTON       PTSUNNY   74  66  76 VRB7G17   29.83F
DAYTON         PTSUNNY   72  64  76 W16G23    29.81S
WRIGHT-PAT AFB PTSUNNY   73  66  78 W13       29.80S
DAYTON GENERAL CLOUDY    72  65  78 W14G20    29.81F
WILMINGTON     CLOUDY    72  65  78 W16G24    29.82S
$$

OHZ036-037-039>041-045>050-054>059-063>069-073>076-082>088-211500-
  CENTRAL AND SOUTHEAST OHIO

CITY           SKY/WX    TMP DP  RH WIND       PRES   REMARKS
COLUMBUS       MOSUNNY   74  65  73 W12       29.78R
OSU AIRPORT    PTSUNNY   73  65  75 W16G26    29.78F
BOLTON FIELD   PTSUNNY   73  66  78 W12       29.80S
RICKENBACK AFB PTSUNNY   71  65  82 W14G20    29.79R
NEWARK         CLOUDY    72  65  78 SW12      29.79R
MARION         PTSUNNY   73  63  70 W17G24    29.76S
LANCASTER      CLOUDY    73  65  75 W12G22    29.80S
ZANESVILLE     CLOUDY    71  64  78 SW8       29.79F
NEW PHILLY     PTSUNNY   71  65  81 SW9       29.77S
$$


USA.gov is the U.S. government's official web portal to all federal, state and local government web resources and services.